Regional Weather Roundup
Issued by NWS

Home | Current Version | Previous Version | Graphics & Text | Print | Product List | Glossary Off
Versions: 1 2 3 4 5 6 7 8 9 10 11 12 13 14 15 16 17 18 19 20 21 22 23 24 25 26 27

000
ASUS45 KBOU 250010
RWRCO

WEATHER ROUNDUP FOR COLORADO
NATIONAL WEATHER SERVICE DENVER/BOULDER CO
600 PM MDT SAT SEP 24 2016

NOTE: "FAIR" INDICATES FEW OR NO CLOUDS BELOW 12000 FEET WITH NO
SIGNIFICANT WEATHER AND/OR OBSTRUCTIONS TO VISIBILITY.

COZ001>005-013-030-031-250100-
...NORTHWEST COLORADO...

CITY           SKY/WX    TMP DP  RH WIND       PRES   REMARKS
CRAIG          CLOUDY    47  41  80 W12       30.29R
HAYDEN         PTSUNNY   43  36  75 SW8       30.29R
MEEKER         CLOUDY    49  39  68 CALM      30.30R
MOUNT WERNER   NOT AVBL
STEAMBOAT SPGS CLOUDY    40  38  93 SW5       30.29R
WALDEN           N/A     41  30  65 SW10G16   30.28R
$$

COZ006>008-011-250100-
...WEST CENTRAL VALLEYS...

CITY           SKY/WX    TMP DP  RH WIND       PRES   REMARKS
GRAND JUNCTION CLOUDY    58  40  51 NW3       30.23R
MONTROSE       CLOUDY    56  36  47 N3        30.27R
EAGLE          PTSUNNY   50  37  62 SW15G22   30.29R
RIFLE          LGT RAIN  51  44  77 CALM      30.29R
DELTA          CLOUDY    61  38  42 N6        30.24R
NUCLA          CLOUDY    59  32  36 NW5       30.28R
$$

COZ017>023-064>068-250100-
...SOUTHWEST COLORADO...

CITY           SKY/WX    TMP DP  RH WIND       PRES   REMARKS
DURANGO        FAIR      57  31  37 W12       30.21S
CORTEZ         CLOUDY    58  36  43 VRB5      30.22S
PAGOSA SPRINGS PTSUNNY   56  29  36 SW7       30.24S
TELLURIDE      CLOUDY    43  32  64 W8        30.35R
WOLF CREEK PAS CLOUDY    32  30  93 SW5       30.43R WCI  27
$$

COZ009-010-012-014-032>034-037-058>063-250100-
...CENTRAL COLORADO...

CITY           SKY/WX    TMP DP  RH WIND       PRES   REMARKS
ASPEN          PTSUNNY   44  36  73 NW6       30.31R
BUENA VISTA    CLOUDY    49  25  38 W16G25    30.25R
COPPER MTN     CLOUDY    34  28  80 MISG      30.40R
BERTHOUD PASS  CLOUDY    25  10  54 NW26      30.35R WCI   9
COTTONWOOD PAS CLOUDY    43  27  52 NW3       30.33R
GUNNISON       CLOUDY    47  32  56 W7        30.30R
KREMMLING      CLOUDY    50  34  53 CALM      30.29R
LEADVILLE      CLOUDY    37  26  64 NW10G17   30.33R
MONARCH PASS   CLOUDY    28  28 100 W23G29    30.48R WCI  14
SALIDA         FAIR      52  30  42 W15G22    30.31R
SUNLIGHT       FOG       32  32 100 MISG      30.42R VSB<1/4
WILKERSON PASS MOCLDY    37  21  52 W7        30.38R
$$

COZ069>075-250100-
...SAN LUIS VALLEY/SANGRE DE CRISTO MOUNTAINS...

CITY           SKY/WX    TMP DP  RH WIND       PRES   REMARKS
ALAMOSA        FAIR      58  29  33 N16G25    30.20R
LA VETA PASS   FAIR      45  27  49 MISG      30.31R
SAGUACHE       NOT AVBL
$$

COZ035-036-038>040-250100-
...NORTHERN COLORADO FRONT RANGE...

CITY           SKY/WX    TMP DP  RH WIND       PRES   REMARKS
DENVER INTL AP MOCLDY    65  27  23 W17       30.09R
DMNS CITY PARK   N/A     62  28  26 W14G22    30.11R
AURORA         PTCLDY    64  26  24 NW25G31   30.11R
FRONT RANGE AP MOCLDY    68  27  21 W17G28    30.11R
ERIE MUNI ARPT FAIR      64  27  24 W15       30.10R
BOULDER MUN AP FAIR      63  30  29 W17G25    30.10R
CENTENNIAL     FAIR      63  24  22 NW17G24   30.11R
BROOMFIELD     MOCLDY    64  28  25 W17G23    30.13R
FORT COLLINS   FAIR      64  28  25 NW13      30.08R
LONGMONT       FAIR      68  28  22 W13       30.11R
$$

COZ041-046-047-076>085-087-088-250100-
...PIKES PEAK/PALMER DIVIDE AND SOUTHERN FOOTHILLS...

CITY           SKY/WX    TMP DP  RH WIND       PRES   REMARKS
COLO. SPRINGS  FAIR      65  24  21 NW22      30.10R
A. F. ACADEMY  FAIR      62  23  22 NW9       30.12R
SCHRIEVER AFB  NOT AVBL
ELLICOTT       MOCLDY   N/A N/A N/A N23G30    30.08R
FALCON         FAIR      59  23  25 N10G18    30.15R
FORT CARSON    FAIR      67  25  20 W10       30.06R
LIMON          MOCLDY    67  20  16 N15       30.05R
MONUMENT HILL  CLOUDY    59  23  25 NW16      30.17R
TRINIDAD       FAIR      72  22  15 CALM      30.06R
$$

COZ042>045-048>051-090-091-250100-
...NORTHEAST COLORADO...

CITY           SKY/WX    TMP DP  RH WIND       PRES   REMARKS
GREELEY ARPT   FAIR      66  30  26 NW13      30.07R
AKRON          FAIR      69  27  20 NW12      30.04R
BURLINGTON     FAIR      71  33  24 SE6       30.01R
WRAY           NOT AVBL
STERLING       FAIR      70  30  23 N13       30.01R
HOLYOKE        FAIR      73  32  21 N9        30.00R
FORT MORGAN    FAIR      67  25  20 NW12      30.06R
$$

COZ086-089-092>099-250100-
...SOUTHEAST COLORADO...

CITY           SKY/WX    TMP DP  RH WIND       PRES   REMARKS
PUEBLO         FAIR      73  26  17 W20       30.02R
LA JUNTA       FAIR      75  29  18 E8        29.98R
LAMAR          FAIR      74  34  23 NE9       29.96R
SPRINGFIELD    NOT AVBL
$$




USA.gov is the U.S. government's official web portal to all federal, state and local government web resources and services.